www.pogodaiklimat.ru
Время
(UTC), дата
00 12.06
03 12.06
06 12.06
09 12.06
12 12.06
15 12.06
18 12.06
21 12.06
00 13.06
03 13.06
06 13.06
09 13.06
12 13.06
15 13.06
18 13.06
21 13.06
00 14.06
03 14.06
06 14.06
09 14.06
12 14.06
15 14.06
18 14.06
21 14.06
00 15.06
03 15.06
06 15.06
09 15.06
12 15.06
15 15.06
18 15.06
21 15.06
00 16.06
03 16.06
06 16.06
09 16.06
12 16.06
15 16.06
18 16.06
21 16.06
00 17.06
03 17.06
06 17.06
09 17.06
12 17.06
15 17.06
18 17.06
21 17.06
00 18.06
03 18.06
06 18.06
09 18.06
12 18.06
15 18.06
18 18.06
21 18.06
Ветер
(напр.,м/с)
Видим. Явления Облачность Т
(С)
Тd
(С)
f
(%)
Тe
(С)
Тes
(С)
Комфортность P
(гПа)
Po
(гПа)
Тmin
(С)
Tmax
(С)
R
(мм)
R24
(мм)
S
(см)
В 2-4
{4}
50 км 10/8 660 м
[Cb cap Ci]
+13.8 +10.2 79 +13 +13 тепло 1017.7 1001.8
В 3-6
{6}
50 км 10/6 700 м
[Cb cap As op]
+13.8 +9.5 75 +13 +13 по сезону 1017.5 1001.6 +13.3
ЮВ 2-4
{6}
9000 м слаб. ливневой дождь 10/10 570 м
[Cb cap]
+16.4 +12.2 76 +17 +17 по сезону 1018.3 1002.5
В 2-4
{6}
8000 м слаб. ливневой дождь 10/10 540 м
[Cb cap]
+14.4 +14.0 97 +14 +14 холодно 1019.0 1003.1
В 3-5
{7}
50 км {ливн. дождь} 9/9 720 м
[Sc]
+15.6 +14.4 93 +15 +16 холодно 1018.9 1003.1
В 3-4
{8}
50 км 8/8 720 м
[Sc]
+16.2 +11.2 72 +16 +16 по сезону 1016.5 1000.7 +16.6 6
В 2-3
{5}
50 км 8/8 700 м
[Sc]
+15.9 +10.9 72 +16 +16 по сезону 1016.1 1000.2
В 1-2
{6}
10 км 9/9 700 м
[Sc]
+15.8 +12.5 81 +16 +16 тепло 1015.3 999.5
штиль 0
{5}
50 км в посл. час ливневой дождь 5/5 600 м
[Sc]
+13.9 +13.0 94 +13 +13 тепло 1014.7 998.8
ЮВ 2-3
{5}
50 км 8/8 720 м
[Sc]
+17.0 +11.9 72 +17 +18 тепло 1014.6 998.8 +13.3 0.4
Ю 3-4
{6}
50 км 8/5 600 м
[Sc Ac trans]
+21.2 +14.2 64 +24 +27 комфорт 1016.1 1000.7
ЮВ 3-5
{8}
50 км 8/4 600 м
[Cu med, cong Ci fib]
+24.6 +14.6 54 +27 +34 жарко 1015.9 1000.6
ЮВ 5-7
{11}
50 км в посл. час гроза {ливн. дождь} 9/8 630 м
[Cb cap Ci ing]
+21.8 +15.8 69 +25 +26 комфорт 1015.5 1000.1
В 3-5
{9}
50 км 8/0
[Ci ing]
+23.4 +14.1 56 +27 +28 душно 1015.4 1000.1 +26.6 0.5
Ю 3-5
{8}
50 км 10/8 660 м
[Cb cap Ci ing]
+21.1 +12.0 56 +23 +23 комфорт 1016.1 1000.6
В 1-2
{5}
10 км 5/0
[Ci ing]
+17.8 +11.0 64 +19 +19 тепло 1017.2 1001.5
В 1-1
{2}
50 км 6/0
[Ac trans Ci ing]
+15.2 +11.1 77 +16 +16 тепло 1016.5 1000.6
В 1-1
{3}
50 км 8/0
[Ac trans Ci ing]
+18.0 +12.2 69 +19 +22 тепло 1016.8 1001.2 +14.9
В 1-3
{4}
50 км 10/0
[Ac lent]
+21.2 +13.8 63 +24 +27 комфорт 1016.3 1000.8
ЮВ 2-5
{6}
50 км 9/0
[Ci ing]
+26.8 +10.7 36 +28 +40 жарко 1015.8 1000.6
Ю 3-6
{8}
50 км 6/0
[Ci fib]
+29.2 +10.7 32 +30 +36 жарко 1015.2 1000.1
ЮЗ 1-3
{7}
50 км 6/0
[Ac lent Ci fib]
+28.9 +11.0 33 +29 +31 жарко 1014.2 999.1 +29.6
штиль 0
{4}
50 км 10/3 600 м
[Sc diur, vesp Ac lent Ci ing]
+22.3 +12.7 55 +25 +25 комфорт 1014.3 998.9
СЗ 1-2
{4}
10 км 10/4 600 м
[Sc diur, vesp Ci ing]
+20.1 +14.6 71 +24 +24 комфорт 1014.1 998.6
З 3-5
{6}
50 км 8/4 600 м
[Sc diur, vesp Ci fib]
+19.4 +14.0 71 +21 +21 комфорт 1014.3 998.8
З 1-2
{5}
50 км 9/5 600 м
[Sc diur, vesp Ci fib]
+20.7 +15.5 72 +25 +27 комфорт 1015.1 999.6 +19.1
ЮЗ 2-5
{5}
50 км 10/0
[Ac cast Ci]
+25.7 +16.1 55 +29 +38 душно 1015.4 1000.2
З 3-5
{6}
50 км 10/4 600 м
[Cb cap Ac trans Ci ing]
+27.2 +14.8 47 +30 +34 душно 1015.0 999.9
ЮЗ 3-7
{7}
50 км {гроза, ливн. дождь} 10/3 600 м
[Cb cap Ac trans Ci ing]
+26.0 +16.7 57 +30 +32 душно 1014.9 999.7
В 1-2
{8}
50 км {гроза} 10/1 600 м
[Cu med, cong Ac trans Ci]
+23.8 +17.2 67 +28 +28 душно 1014.7 999.4 +28.4 2
ЮЗ 1-2
{3}
50 км {гроза} 8/3 600 м
[Sc Ac trans Ci fib]
+21.9 +16.3 71 +26 +26 душно 1014.1 998.7
штиль 0
{2}
10 км 9/0
[Ac trans]
+18.3 +16.6 90 +19 +19 тепло 1014.1 998.5
В 1-2
{3}
13 км 4/0
[Ac trans Ci fib]
+17.7 +17.4 98 +19 +19 тепло 1013.9 998.3
ЮВ 2-3
{4}
18 км 3/1 600 м
[Cu med, cong Ac cast]
+20.5 +16.2 76 +24 +27 комфорт 1013.2 997.7 +17.4
ЮВ 3-4
{7}
50 км 4/3 600 м
[Cu med, cong Ac cast]
+26.9 +13.8 44 +29 +35 жарко 1010.5 995.4
ЮВ 4-6
{9}
50 км 10/1 600 м
[Cu med, cong Ac trans Ci fib]
+30.7 +12.9 34 +32 +37 жарко 1008.7 993.8
Ю 4-7
{11}
50 км 10/6 750 м
[Cu med, cong Ci ing]
+31.8 +9.7 26 +31 +33 жарко 1006.7 991.9
ЮВ 2-3
{16}
50 км {гроза, ливн. дождь} 10/3 600 м
[Cu med, cong Cs]
+23.7 +13.8 54 +26 +27 жарко 1006.0 990.8 +32.6 0.3
Ю 1-1
{3}
50 км {гроза, ливн. дождь} 5/3 600 м
[Cu med, cong Ac trans]
+23.0 +15.7 63 +27 +27 душно 1005.5 990.3
С 1-1
{10}
4000 м слаб. ливневой дождь {гроза} 10/10 540 м
[Cb cap]
+18.7 +16.7 88 +21 +21 комфорт 1006.5 991.0
С 1-2
{3}
15 км {гроза, ливн. дождь} 10/10 720 м
[Sc]
+16.6 +16.1 97 +17 +17 тепло 1007.8 992.2
СЗ 3-6
{9}
50 км 9/9 750 м
[Sc]
+17.3 +15.4 89 +17 +18 тепло 1008.5 992.9 +16.3 6
С 5-7
{10}
50 км 1/0
[Ci ing]
+19.1 +7.8 48 +19 +26 тепло 1010.9 995.3
С 5-7
{11}
50 км 4/4 600 м
[Cu med, cong]
+21.6 +7.3 40 +23 +27 комфорт 1011.8 996.3
СЗ 4-7
{11}
50 км 3/3 600 м
[Cu med, cong]
+22.7 +6.0 34 +23 +27 комфорт 1012.6 997.2
СЗ 5-7
{11}
50 км 5/4 600 м
[Cu med, cong]
+20.2 +4.0 34 +21 +21 комфорт 1014.0 998.5 +23.2
СЗ 4-5
{9}
50 км 6/6 700 м
[Sc]
+17.4 +4.6 43 +17 +17 тепло 1016.2 1000.4
СЗ 4-5
{7}
10 км 3/0
[Ci fib]
+13.3 +6.2 62 +12 +12 по сезону 1017.4 1001.4
СЗ 3-5
{7}
50 км ясно +10.9 +7.6 80 +9 +9 по сезону 1019.1 1002.9
СЗ 3-5
{7}
50 км 4/4 600 м
[Sc]
+11.7 +9.1 84 +10 +12 по сезону 1020.9 1004.7 +10.5
С 4-7
{9}
50 км 8/8 630 м
[Cu med, cong]
+16.2 +8.1 59 +16 +17 тепло 1022.0 1006.1
С 4-8
{11}
50 км 5/5 600 м
[Cu med, cong]
+18.1 +4.8 41 +18 +23 тепло 1022.8 1007.0
СЗ 4-8
{10}
50 км 4/4 600 м
[Cu med, cong]
+18.7 +4.0 38 +19 +22 тепло 1023.2 1007.4
СЗ 3-6
{8}
50 км 3/1 600 м
[Cu med, cong Ci fib]
+19.1 +3.1 35 +20 +21 тепло 1023.4 1007.7 +20.2
З 1-2
{7}
50 км 3/0
[Ci fib]
+15.2 +4.2 48 +16 +16 тепло 1023.7 1007.7
З 1-2
{3}
10 км 4/0
[Ci ing]
+11.6 +6.5 71 +12 +12 тепло 1024.3 1008.1
Местоположение метеостанции Сарапул (Удмуртия, Россия): широта 56.47 долгота 53.73 высота над уровнем моря 133 м.
В архиве по умолчанию представлена погода в Сарапуле за последнюю неделю. Архивные данные за месяц целиком и за предыдущие месяцы, начиная с января 2011 года, Вы можете получить, выбрав интересующий диапазон дат из раскрывающегося списка и нажав кнопку "Найти!".
*Определитесь, кто Вы:
Внимание! Время в таблицах - всемирное. Для получения местного времени необходимо прибавить поправку, которая равна 4 ч.
Смотрите также архив погоды в соседних городах и на ближайших метеорологических станциях:
Партнеры нашего сайта:      
Пояснения к столбцам:
  • Ветер - указаны скорость ветра в м/с - средняя за 10 мин, порывы в срок и между сроками (в фигурных скобках) и направление, откуда дует ветер: С - северный,
  • СВ - северо-восточный, В - восточный, ЮВ - юго-восточный, Ю - южный, ЮЗ - юго-западный, З - западный, СЗ - северо-западный.
  • Видимость - горизонтальная дальность видимости в метрах или километрах. При видимости от 1 до 10 км при отсутствии осадков обычно наблюдается дымка, при ухудшении видимости до 1 км и менее - туман. В сухую погоду видимость может ухудшаться дымом, пылью или мглою.
  • Явления - указаны атмосферные явления, наблюдавшиеся в срок или в последний час перед сроком; фигурными скобками обозначены явления, наблюдавшиеся между сроками (за 1-3 часа до срока); квадратными скобками обозначены град или гололедные отложения с указанием их диаметра в мм.
  • Облачность - указаны через наклонную черту общая и нижняя облачность в баллах и высота нижней границы облаков в метрах; квадратными скобками обозначены формы облаков: Ci - перистые, Cs - перисто-слоистые, Cc - перисто-кучевые, Ac - высококучевые, As - высокослоистые, Sc - слоисто-кучевые, Ns - слоисто-дождевые, Cu - кучевые, Cb - кучево-дождевые. Подробнее классификацию облаков см. в Атласе облаков (PDF).
  • T - Температура воздуха - температура, измеренная на высоте 2 м над землей.
  • Td - Температура точки росы - температура, при понижении до которой содержащийся в воздухе водяной пар достигнет насыщения.
  • f - Относительная влажность воздуха - влажноcть воздуха, измеренная на высоте 2 м над землей.
  • Te - Эффективная температура - температура, которую ощущает одетый по сезону человек в тени. Характеристика душности погоды. При расчете учитывается влияние влажности воздуха и скорости ветра на теплоощущения человека.
  • Tes - Эффективная температура на солнце - температура, которую ощущает человек, с поправкой на солнечный нагрев. Характеристика знойности погоды. Зависит от высоты солнца над горизонтом, облачности и скорости ветра. Ночью, в пасмурную погоду, а также при ветре 12 м/с и более поправка равна нулю.
  • P - Атмосферное давление - приведенное к уровню моря атмосферное давление.
  • Po - Атмосферное давление - измеренное на уровне метеостанции атмосферное давление.
  • Tmin - Минимальная температура - минимум температуры воздуха на высоте 2 м над землей.
  • Tmax - Максимальная температура - максимум температуры воздуха на высоте 2 м над землей.
  • R - Количество осадков - Количество выпавших осадков за период времени, мм. При наведении курсора мыши на число - период времени, за который выпало указанное количество осадков.
  • R24 - Количество осадков - Количество выпавших осадков за 24 часа, мм.
  • S - Снежный покров - Высота снежного покрова, см. При наведении курсора мыши на число - состояние снежного покрова и степень покрытия местности в баллах.